Regional Weather Roundup
Issued by NWS

Home | Current Version | Previous Version | Text Only | Print | Product List | Glossary Off
Versions: 1 2 3 4 5 6 7 8 9 10 11 12 13 14 15 16 17 18 19 20 21 22 23 24 25 26 27 28 29 30 31 32 33 34 35 36 37 38 39 40 41 42 43 44 45 46 47 48 49 50

000
ASUS44 KMEG 201400
RWRTN
TENNESSEE HOURLY STATE WEATHER ROUNDUP
NATIONAL WEATHER SERVICE MEMPHIS TN
800 AM CST MON FEB 20 2017

TNZ002-004-019-021-049-052-054-088>092-201500-
WEST TENNESSEE

CITY           SKY/WX    TMP DP  RH WIND       PRES   REMARKS
MEMPHIS INTL   PTSUNNY   62  51  67 S10       30.08R
NWS MEMPHIS      N/A     57 N/A N/A MISG        N/A
JACKSON        MOSUNNY   55  51  86 E5        30.11R
UNION CITY     SUNNY     55  55 100 CALM      30.10S
PARIS          SUNNY     54  48  82 SE9       30.13R
$$

TNZ008-025-027-028-033-062-065-066-201500-
NORTH MIDDLE TENNESSEE

CITY           SKY/WX    TMP DP  RH WIND       PRES   REMARKS
NASHVILLE      CLOUDY    50  47  89 CALM      30.18S FOG
CLARKSVILLE    MOSUNNY   51  47  86 SE6       30.15S FOG
SMYRNA         MOSUNNY   48  47  96 CALM      30.20R
CROSSVILLE     MOSUNNY   48  46  93 CALM      30.23R FOG
$$

TNZ061-075-076-078-094-096-097-201500-
SOUTH MIDDLE TENNESSEE

CITY           SKY/WX    TMP DP  RH WIND       PRES   REMARKS
TULLAHOMA      SUNNY     50  46  87 E3        30.20R
WINCHESTER     SUNNY     48  46  93 CALM      30.19S
MCMINNVILLE    SUNNY     48  48 100 CALM      30.19S
COLUMBIA       SUNNY    N/A N/A N/A CALM      30.15S
SHELBYVILLE    SUNNY     54  50  87 E7        30.19R
$$

TNZ017-018-042-046-047-201500-
NORTHEAST TENNESSEE

CITY           SKY/WX    TMP DP  RH WIND       PRES   REMARKS
TRI CITIES     MOSUNNY   40  39  97 CALM      30.27S FOG
$$

TNZ012-013-036-069-073-074-201500-
CENTRAL EAST TENNESSEE

CITY           SKY/WX    TMP DP  RH WIND       PRES   REMARKS
KNOXVILLE      MOSUNNY   48  43  82 CALM      30.23R
OAK RIDGE      SUNNY     46  43  89 E3        30.25S
GATLINBURG     SUNNY     39  37  93 CALM      30.24S
$$

TNZ083-085-099-201500-
SOUTHEAST TENNESSEE

CITY           SKY/WX    TMP DP  RH WIND       PRES   REMARKS
CHATTANOOGA    PTSUNNY   49  45  86 CALM      30.23R
$$

SKY/WX REPORTED AS FAIR MEANS FEW OR NO CLOUDS BELOW
12 THOUSAND FEET.





USA.gov is the U.S. government's official web portal to all federal, state and local government web resources and services.